White Plains, CT

3:31 AM EST on December 08, 2019 (GMT -0500)
Westchester County

Weather History for KHPN - November, 2019

Change the Weather History Date:

Wednesday, November 13, 2019

  Actual Average Record
Temperature  
Mean Temperature 26 °F -  
Max Temperature 32 °F 48 °F 64 °F (2010)
Min Temperature 21 °F 34 °F 23 °F (1986)
Degree Days  
Heating Degree Days 38    
Moisture  
Dew Point 5 °F    
Average Humidity 43    
Maximum Humidity 57    
Minimum Humidity 26    
Precipitation  
Precipitation 0.00 in - - ()
Sea Level Pressure  
Sea Level Pressure 30.32 in    
Wind  
Wind Speed 12 mph ()    
Max Wind Speed 23 mph    
Max Gust Speed 31 mph    
Visibility 10.0 miles    
Events      
Averages and records for this station are not official NWS values.
T = Trace of Precipitation, MM = Missing Value Source: Averaged Metar Reports

Daily Weather History Graph

Daily Weather History Graph

Search for Another Location

Airport or City:

Astronomy

Nov. 13, 2019 Rise Set
Actual Time 6:39 AM EST 4:37 PM EST
Civil Twilight 6:10 AM EST 5:07 PM EST
Nautical Twilight 5:37 AM EST 5:40 PM EST
Astronomical Twilight 5:04 AM EST 6:12 PM EST
Moon 5:39 PM EST (11/13) 7:30 AM EST (11/13)
Length of Visible Light 10h 56m
Length of Day
9h 58m
Full, 99% of the Moon is Illuminated
Nov 13
Full
Nov 19
Last Quarter
Nov 26
New
Dec 4
First Quarter
Dec 12
Full

Hourly Weather History & Observations

Time (EST) Temp. Windchill Dew Point Humidity Pressure Visibility Wind Dir Wind Speed Gust Speed Precip Events Conditions
12:56 AM 21.9 °F 5.8 °F 8.1 °F 55% 30.15 in 10.0 mi WNW 23.0 mph 27.6 mph N/A   Clear
1:56 AM 21.9 °F 6.2 °F 8.1 °F 55% 30.16 in 10.0 mi WNW 21.9 mph 31.1 mph N/A   Clear
2:56 AM 21.9 °F 9.2 °F 7.0 °F 53% 30.19 in 10.0 mi West 13.8 mph 24.2 mph N/A   Clear
3:56 AM 21.0 °F 8.6 °F 7.0 °F 55% 30.20 in 10.0 mi WNW 12.7 mph 20.7 mph N/A   Partly Cloudy
4:56 AM 21.0 °F 7.1 °F 7.0 °F 55% 30.22 in 10.0 mi WNW 16.1 mph 23.0 mph N/A   Partly Cloudy
5:56 AM 21.0 °F 10.6 °F 8.1 °F 57% 30.24 in 10.0 mi West 9.2 mph - N/A   Clear
6:56 AM 21.0 °F 8.6 °F 8.1 °F 57% 30.25 in 10.0 mi WNW 12.7 mph 23.0 mph N/A   Partly Cloudy
7:56 AM 23.0 °F 9.2 °F 9.0 °F 55% 30.28 in 10.0 mi WNW 17.3 mph 23.0 mph N/A   Partly Cloudy
8:56 AM 25.0 °F 12.2 °F 9.0 °F 51% 30.30 in 10.0 mi WNW 16.1 mph 27.6 mph N/A   Partly Cloudy
9:56 AM 27.0 °F 13.2 °F 6.1 °F 41% 30.32 in 10.0 mi NNW 20.7 mph - N/A   Partly Cloudy
10:56 AM 28.9 °F 18.6 °F 5.0 °F 36% 30.32 in 10.0 mi NNW 12.7 mph - N/A   Partly Cloudy
11:56 AM 30.0 °F 18.7 °F -0.0 °F 28% 30.32 in 10.0 mi NNW 16.1 mph 25.3 mph N/A   Partly Cloudy
12:56 PM 30.9 °F 20.2 °F 1.0 °F 28% 30.32 in 10.0 mi NNW 15.0 mph - N/A   Clear
1:56 PM 32.0 °F 21.2 °F 1.0 °F 27% 30.34 in 10.0 mi NW 16.1 mph - N/A   Clear
2:56 PM 32.0 °F 23.6 °F -0.0 °F 26% 30.34 in 10.0 mi NNW 10.4 mph - N/A   Clear
3:56 PM 28.9 °F 21.1 °F -0.0 °F 29% 30.36 in 10.0 mi NNW 8.1 mph - N/A   Clear
4:56 PM 28.9 °F 20.4 °F -0.0 °F 29% 30.37 in 10.0 mi NW 9.2 mph - N/A   Clear
5:56 PM 28.0 °F 20.8 °F 1.0 °F 31% 30.40 in 10.0 mi NW 6.9 mph - N/A   Clear
6:56 PM 26.1 °F 20.5 °F 1.9 °F 35% 30.43 in 10.0 mi NE 4.6 mph - N/A   Clear
7:56 PM 25.0 °F - 3.0 °F 39% 30.43 in 10.0 mi Calm Calm - N/A   Clear
8:56 PM 23.0 °F - 7.0 °F 50% 30.44 in 10.0 mi Calm Calm - N/A   Clear
9:56 PM 23.0 °F - 6.1 °F 48% 30.44 in 10.0 mi Calm Calm - N/A   Clear
10:56 PM 23.0 °F - 6.1 °F 48% 30.46 in 10.0 mi Calm Calm - N/A   Clear
11:56 PM 21.9 °F - 7.0 °F 53% 30.46 in 10.0 mi Calm Calm - N/A   Clear